Home > Weather > Yazd > Past weeks

Flag for Iran Weather for the Past 2 Weeks in Yazd, Iran

Now
91 °F

Broken clouds.


Feels Like: 87 °F
Forecast: 67 / 90 °F
Wind: 5 mph from East

Location: Yazd Airport

Current Time: Apr 29, 2016 at 2:46:06 PM

Latest Report: Apr 29, 2016 at 1:30 PM


Visibility: N/A

Pressure: 29.98 "Hg (26.17 "Hg at 1218m altitude)

Humidity: 10%

Dew Point: 27 °F

Location of YazdLocation

Historic Weather in Yazd — Graph

°F

Yazd Temperature Yesterday

Maximum temperature yesterday: 95 °F (at 3:30 PM)
Minimum temperature yesterday: 70 °F (at 5:30 AM)
Average temperature yesterday: 84 °F

High & Low Weather Summary for the Past Weeks

 TemperatureHumidityPressure
High95 °F (Apr 28, 3:30 PM)71% (Apr 19, 6:00 AM)30.27 "Hg (Apr 19, 6:00 AM)
Low48 °F (Apr 19, 4:30 AM)5% (Apr 22, 2:20 PM)29.86 "Hg (Apr 14, 5:00 PM)
Average72 °F20%30.04 "Hg
* Reported Apr 14 12:30 PM — Apr 29 12:30 PM, Yazd, Weather by CustomWeather, © 2016

Note: Actual official high and low records may vary slightly from our data, if they occured in-between our weather recording intervals... More about our weather records

Advertising

Yazd Weather History for the Previous 24 Hours

Scroll right to see more
 ConditionsComfort  
Time TempWeatherWind HumidityBarometerVisibility
12:30 PM
Fri, Apr 29
91 °FPartly sunny.5 mph10%30.01 "HgN/A
12:00 PM90 °FPartly sunny.5 mph11%30.01 "HgN/A
11:30 AM88 °FPartly sunny.5 mph13%30.01 "HgN/A
11:00 AM88 °FPartly sunny.5 mph13%30.01 "HgN/A
10:30 AM86 °FPartly sunny.9 mph13%30.04 "HgN/A
9:30 AM84 °FPassing clouds.5 mph14%30.04 "HgN/A
9:00 AM82 °FScattered clouds.2 mph15%30.04 "HgN/A
8:30 AM81 °FPartly sunny.5 mph16%30.04 "HgN/A
8:00 AM79 °FPartly sunny.2 mph16%30.01 "HgN/A
6:30 AM73 °FPassing clouds.5 mph19%29.98 "HgN/A
5:30 AM75 °FPassing clouds.5 mph18%29.98 "HgN/A
4:30 AM77 °FPassing clouds.2 mph17%29.98 "HgN/A
3:30 AM77 °FPassing clouds.5 mph15%29.95 "HgN/A
2:30 AM79 °FPassing clouds.7 mph15%29.98 "HgN/A
1:30 AM82 °FPassing clouds.2 mph13%29.95 "HgN/A
12:30 AM82 °FPassing clouds.7 mph13%29.95 "HgN/A
11:30 PM
Thu, Apr 28
82 °FPassing clouds.5 mph13%29.95 "HgN/A
11:00 PM84 °FPassing clouds.7 mph12%29.95 "HgN/A
10:30 PM86 °FPassing clouds.9 mph11%29.98 "HgN/A
10:00 PM86 °FPassing clouds.9 mph11%29.98 "HgN/A
9:30 PM88 °FPassing clouds.5 mph9%29.98 "HgN/A
9:00 PM88 °FPassing clouds.2 mph9%29.95 "HgN/A
8:30 PM90 °FScattered clouds.2 mph9%29.95 "HgN/A
8:00 PM91 °FBroken clouds.7 mph7%29.95 "HgN/A
7:30 PM91 °FScattered clouds.2 mph7%29.95 "HgN/A
7:00 PM93 °FScattered clouds.5 mph7%29.95 "HgN/A
6:30 PM93 °FScattered clouds.7 mph7%29.95 "HgN/A
6:00 PM95 °FScattered clouds.5 mph6%29.95 "HgN/A
5:30 PM95 °FScattered clouds.5 mph6%29.95 "HgN/A
5:00 PM95 °FScattered clouds.5 mph6%29.95 "HgN/A
4:30 PM95 °FScattered clouds.5 mph6%29.95 "HgN/A
3:30 PM95 °FPassing clouds.7 mph7%29.98 "HgN/A
2:30 PM93 °FPassing clouds.5 mph7%30.01 "HgN/A
Weather by CustomWeather, © 2016

See weather overviewHow to use our weather pages